sat.trackr.live / text

‹ back to catalog

STARLINK-37475

NORAD 68839 · 2026-094A

PAYLOAD ACTIVE UNKNOWN

§ Identity

Operator
Country
US
Launch date
2026-04-26
Launch site
AFWTR
Launch vehicle
Mass (kg)
RCS (m²)

Purposes: comms

External: N2YO · Heavens-Above · Gunter

§ Orbital elements

Epoch: 2026-09-19T23:32:28.135680Z

Period
93.90 min
Inclination
97.2843°
Eccentricity
0.0000389
Mean motion
15.33476077 rev/d
Perigee alt
465.2 km
Apogee alt
465.7 km
Semi-major
6,843.6 km
B*
6.9063e-4
RAAN
276.0432°
Arg perigee
89.7698°
Mean anomaly
270.3589°
Rev number
2,257

§ Raw data

STARLINK-374751 68839U 26094A   26262.98088120  .00022308  00000+0  69063-3 0  99902 68839  97.2843 276.0432 0000389  89.7698 270.3589 15.33476077 22573

JSON: /api/v1/satellites/68839 · /tle

For live sub-satellite position, see the globe view (requires WebGL).

§ Visibility from observer

Set your observer location to see the next 7 days of passes ≥ 10°. The values pass through the URL so the page stays shareable.

No JS? Fill the form by hand. The geolocation button needs JavaScript.